{"data":{"norad_id":59148,"intl_designator":"2024-043BC","name":"HAMMER","alt_names":[],"object_type":"PAYLOAD","status":"ACTIVE","operator":null,"country":"SPN","launch_date":"2024-03-04","launch_site_code":"AFWTR","launch_vehicle":null,"mission":null,"orbit_class":"UNKNOWN","rcs_meters":null,"size_class":null,"mass_kg":null,"dimensions":null,"purposes":[],"wikipedia_slug":null,"has_3d_model":false,"image_url":null,"decayed_at":null,"tle_current":{"epoch":"2026-05-25T03:56:38.893056Z","epoch_age_seconds":54725,"freshness":"FRESH","line1":"1 59148U 24043BC  26145.16433904  .00045155  00000+0  83366-3 0  9996","line2":"2 59148  97.5424 292.8479 0005690 256.9180 103.1436 15.48950343124245","mean_motion":15.48950343,"eccentricity":0.000569,"inclination_deg":97.5424,"raan_deg":292.8479,"arg_perigee_deg":256.918,"mean_anomaly_deg":103.1436,"bstar":0.00083366,"rev_number":12424,"period_min":92.966182325188,"perigee_km":415.92742327982,"apogee_km":423.66347040433,"semimajor_km":6797.9324468421,"source":"CELESTRAK","updated_at":"2026-05-25T13:38:01.200128Z"}}}